User: anonymous   Login
Location: Chena
(64.8152°N, 147.9227°W)
Time: 12:37:27
(UTC+00:00)
Language:

Vanguard 1 Rocket - Orbit

View from above orbital plane
View from above orbital plane
View from above satellite
View from above satellite

Ground track
Ground track

The orbit data is extracted from the following two-line orbital elements,

1    16U 58002A   21066.21341368  .00000164  00000-0  20219-3 0  9993
2    16  34.2758 116.0842 2024289 265.5782  71.2388 10.48698339486404
Epoch (UTC): 07 March 2021 05:07:18
Eccentricity: 0.2024289
inclination: 34.2758°
perigee height: 654 km
apogee height: 4223 km
right ascension of ascending node: 116.0842°
argument of perigee: 265.5782°
revolutions per day: 10.48698339
mean anomaly at epoch: 71.2388°
orbit number at epoch: 48640

The dashed part of the orbit path shows where the satellite is in the earth's shadow,  

DLR